Location: Chateh
(58.6667°N, 118.6000°W)
Time: 03:29:48
(UTC+00:00)

DOVE 4 - Pass Details

Date: 08 December 2023
Orbit: 583 x 781 km, 97.8° (Epoch: 23 February)

Event Time Altitude Azimuth Distance (km) Brightness Sun altitude
Rises 14:53:41 0° 110° (ESE) 3,073 ? -11.0°
Reaches altitude 10° 14:56:35 10° 93° (E) 2,120 ? -10.7°
Maximum altitude 14:59:39 18° 51° (NE) 1,613 ? -10.3°
Drops below altitude 10° 15:02:39 10° 8° (N) 2,045 ? -10.0°
Sets 15:05:22 0° 350° (N) 2,923 ? -9.7°
